Temperature
20 21 22 22 22 20 20 19 19 20 19 19 18 18 18 18 19 19 19 19 19 18 18 18 18 18 18 18 17 17 17 17 17 17 16 16 16 16 16 16 15 15 15 15
21 21 21 22 21 21 20 20 19 19 19 18 18 18 18 18 18 18 19 19 19 19 18 18 18 18 17 17 17 17 17 16 16 16 16 16 16 16 15 15 15 15 15 15
19 20 22 21 21 20 20 19 19 19 19 17 17 17 17 18 18 18 18 19 18 18 18 18 18 17 17 17 17 17 16 16 16 16 16 15 15 15 15 15 15 15 15 15
17 20 21 20 20 20 20 19 18 18 17 17 17 18 18 19 19 19 18 18 18 18 18 18 18 17 17 17 16 16 16 16 16 15 15 15 15 15 15 14 14 14 14 14
16 18 19 20 20 19 20 19 18 17 17 17 17 17 17 18 19 19 18 18 18 18 18 18 17 17 17 16 16 16 16 16 15 15 15 15 14 14 14 14 14 14 14 14
16 19 19 20 20 20 19 19 18 17 17 17 17 16 17 18 18 18 18 18 18 17 17 17 17 16 16 16 16 16 16 15 15 15 14 14 14 14 14 14 14 13 13 13
16 18 18 19 19 20 20 19 18 18 17 17 17 17 18 18 18 18 17 17 17 17 17 16 16 16 16 15 15 15 15 15 15 14 14 14 14 14 14 14 13 13 13 13
14 17 18 18 18 18 18 19 18 18 18 18 18 18 18 18 18 17 17 17 16 16 16 16 15 15 15 15 15 15 15 14 14 14 14 13 14 14 13 13 13 13 12 12
15 16 17 17 18 19 19 18 18 18 18 18 18 18 18 17 17 17 16 16 16 16 15 15 15 15 15 15 14 14 14 14 14 14 14 13 13 13 13 13 13 12 12 12
14 15 16 18 18 19 19 19 19 19 19 18 18 18 17 17 17 16 16 16 15 15 15 15 14 14 14 14 14 14 14 14 14 14 14 13 13 13 13 13 12 12 12 12
14 15 16 18 18 19 19 19 19 19 18 18 18 17 17 16 16 16 15 15 15 15 15 15 14 14 14 14 14 13 13 13 13 13 13 13 13 13 12 12 12 12 12 12
15 16 15 17 18 18 18 18 18 18 18 17 18 17 17 16 16 16 15 15 15 15 15 14 14 14 14 13 13 13 13 13 13 13 13 13 12 12 12 12 12 12 11 11
18 18 18 18 18 18 18 18 18 18 17 17 17 16 16 16 15 15 15 15 14 14 14 14 14 14 13 13 13 13 13 13 13 12 12 12 12 12 12 12 12 12 11 11
18 17 17 17 17 18 18 17 17 17 17 17 16 16 16 15 15 15 15 14 14 14 14 14 13 13 13 13 13 13 13 12 12 12 12 12 12 12 12 11 11 11 11 11
17 18 18 17 17 17 17 17 17 16 16 16 16 15 15 15 15 14 14 14 14 14 13 13 13 13 13 13 13 12 12 12 12 12 12 12 12 12 11 11 11 11 11 11
17 17 17 17 17 16 16 16 16 16 15 15 15 15 15 14 14 14 14 13 13 13 13 13 13 13 13 13 12 12 12 12 12 12 12 11 11 11 11 11 11 11 11 10
16 16 16 16 16 16 16 16 16 15 15 15 14 14 14 14 14 13 13 13 13 13 13 13 13 13 12 12 12 12 12 12 12 11 11 11 11 11 11 10 10 10 10 10
17 17 17 16 16 15 15 15 15 15 15 14 14 14 13 13 13 13 13 13 13 13 12 12 12 12 12 12 12 12 12 12 12 11 11 11 11 11 10 10 10 10 10 10
17 16 16 16 16 16 15 15 15 14 14 14 14 13 13 13 13 13 12 12 12 12 12 12 12 12 12 12 12 12 12 12 11 11 11 11 11 10 10 10 10 10 10 10
16 16 16 16 15 15 15 15 14 14 14 14 13 13 13 13 13 12 12 12 12 12 12 12 12 12 12 12 11 11 11 11 11 11 11 10 10 10 10 10 10 10 10 10
16 16 15 15 15 15 15 14 14 14 14 13 13 13 13 12 12 12 12 12 12 11 11 11 11 11 11 11 11 11 11 11 11 10 10 10 10 10 10 10 10 9 9 9
15 15 15 15 14 14 14 14 14 13 13 13 13 13 12 12 12 12 12 12 11 11 11 11 11 11 11 11 11 11 10 10 10 10 10 10 10 10 10 10 10 9 9 9
15 15 14 14 14 14 14 14 13 13 13 13 13 13 12 12 12 12 12 11 11 11 11 11 11 11 11 10 10 10 10 10 10 10 10 10 10 10 10 10 9 9 9 9
14 14 14 14 13 13 13 13 13 13 13 13 12 12 12 12 12 12 11 11 11 11 11 11 10 10 10 10 10 10 10 10 10 10 10 10 10 10 9 9 9 9 9 9
14 14 13 13 13 13 13 13 13 13 12 12 12 12 12 12 12 11 11 11 11 11 11 10 10 10 10 10 9 9 9 9 9 9 9 9 9 9 9 9 9 8 8 8
13 13 13 13 13 13 13 13 12 12 12 12 12 12 11 11 11 11 11 11 11 10 10 10 10 10 10 9 9 9 9 9 9 9 9 9 9 9 8 8 8 8 8 8
13 13 13 13 13 13 12 12 12 12 12 12 12 11 11 11 11 11 10 10 10 10 10 10 10 10 9 9 9 9 9 9 9 9 9 8 8 8 8 8 8 8 8 7
Wind_Speed
4 4 3 3 3 5 5 6 7 7 7 8 6 4 3 2 3 2 1 2 3 3 2 1 1 1 1 1 1 2 2 2 2 2 1 1 1 1 1 1 1 1 1 1
1 2 1 1 1 3 3 3 3 3 5 4 1 2 2 2 3 3 2 3 3 3 2 2 1 1 0 0 1 2 2 2 1 1 1 1 0 0 1 0 0 0 1 1
2 4 3 1 3 2 2 2 4 5 6 1 1 2 3 3 3 3 3 3 3 3 3 3 2 2 2 1 1 1 1 1 1 1 1 0 0 1 1 0 0 0 0 0
2 3 2 6 3 3 3 1 2 2 2 3 3 2 1 2 4 4 3 2 2 2 2 2 2 2 1 1 1 2 1 1 1 1 1 1 0 0 0 0 0 1 1 1
4 2 4 5 2 2 3 2 1 2 2 2 3 3 2 1 2 3 3 2 2 1 1 1 1 1 2 1 1 1 1 2 1 1 1 1 1 2 2 1 1 1 1 0
4 4 6 6 3 1 3 2 2 3 4 4 4 1 3 1 2 3 2 2 2 2 2 1 0 1 2 1 1 2 3 2 2 2 2 2 3 2 1 1 1 1 1 0
4 3 6 5 3 1 3 6 3 4 4 5 4 4 2 2 2 2 2 2 2 2 1 1 1 3 2 2 3 3 3 2 1 2 2 2 2 1 1 1 0 0 1 1
4 3 6 3 2 3 5 1 2 3 3 4 3 2 3 2 2 3 3 2 2 2 0 1 1 2 2 3 4 2 1 1 1 2 2 1 1 1 1 1 1 0 1 2
6 6 5 3 4 3 2 2 2 3 2 4 3 3 3 2 3 3 3 2 1 1 0 1 1 2 3 4 2 2 2 2 2 1 1 1 2 2 1 1 1 0 0 1
2 4 4 3 2 1 1 2 2 3 4 4 4 4 3 2 2 2 2 2 1 1 0 2 2 2 3 3 2 2 2 2 1 1 1 0 1 1 2 1 1 1 1 1
2 4 3 4 2 1 1 2 2 2 3 5 6 4 3 2 2 2 1 1 1 1 2 3 3 2 3 3 2 2 1 1 1 1 1 1 1 1 1 1 2 3 2 2
6 6 5 5 4 2 1 1 2 3 2 3 4 4 3 3 2 2 2 1 1 1 2 3 2 2 3 2 2 3 2 1 1 1 1 1 1 0 1 0 1 1 2 2
5 4 3 3 2 1 1 1 2 3 4 3 2 4 4 2 2 2 2 2 3 2 2 2 2 2 2 2 3 3 3 3 2 2 2 2 1 1 1 2 1 1 1 1
4 3 2 3 2 1 2 3 4 4 3 3 2 3 3 2 2 2 2 3 2 1 1 1 2 3 3 2 3 3 3 3 2 2 2 2 2 2 2 1 1 2 2 2
3 3 4 3 3 2 3 4 5 3 2 2 1 2 3 3 3 2 2 1 0 1 2 1 2 3 2 2 3 3 3 2 2 2 2 2 1 1 1 2 1 1 1 2
1 3 4 5 4 4 3 4 4 2 2 2 2 2 2 2 1 1 1 1 1 1 2 2 3 4 2 2 3 2 2 3 3 2 2 2 1 1 2 2 2 2 2 2
4 3 3 4 4 4 3 4 4 4 3 3 3 3 2 2 1 0 1 1 1 2 2 3 4 3 2 2 3 2 2 2 3 3 2 2 2 2 3 3 3 3 3 3
6 6 7 8 7 5 4 3 4 4 3 3 3 3 3 2 2 2 2 1 2 3 4 4 4 3 2 2 3 2 2 2 2 3 2 2 3 3 3 3 3 3 3 3
3 5 5 5 6 6 5 4 4 3 3 3 3 3 3 3 3 2 1 1 1 4 5 4 4 3 3 3 3 3 3 3 3 3 3 3 3 2 3 3 3 4 3 3
2 3 4 4 3 4 4 4 3 3 3 3 3 2 2 2 2 2 1 2 3 4 4 4 3 2 3 3 4 3 3 4 4 3 3 3 3 4 3 3 4 4 3 3
2 3 4 4 3 3 4 4 4 3 3 3 4 4 3 3 2 2 2 3 4 4 3 3 2 2 3 3 3 3 4 4 4 4 3 3 3 3 4 4 4 4 4 4
2 3 3 3 3 2 1 2 3 3 2 2 2 3 2 3 3 2 3 4 4 4 3 2 2 2 2 2 2 3 3 3 3 3 3 3 3 4 4 4 4 4 4 3
2 2 3 3 3 2 1 2 2 3 3 3 3 4 4 4 3 3 4 4 3 4 3 3 3 3 2 1 1 2 3 3 3 3 3 4 4 4 4 4 4 4 4 3
2 2 2 1 2 2 1 2 1 2 2 3 3 4 3 2 3 3 3 4 4 4 3 3 3 3 2 1 1 2 2 3 3 3 3 3 3 3 3 3 3 3 3 3
2 2 2 2 2 2 3 2 1 1 1 1 2 2 2 2 2 3 3 3 3 2 2 3 2 2 2 1 2 2 2 2 3 3 3 3 3 2 2 2 3 3 3 3
2 2 2 3 3 3 2 2 2 1 1 1 2 2 1 1 1 1 1 1 1 1 1 1 1 1 1 2 2 2 2 2 2 2 2 2 2 2 2 3 3 3 3 3
1 1 0 0 1 1 2 2 2 2 2 2 1 2 1 1 1 1 1 1 1 1 1 1 1 1 1 1 1 1 1 1 1 1 1 2 2 2 3 3 3 3 3 2
Wind_Direction
226 238 200 207 205 179 181 186 191 231 227 251 242 217 212 176 148 125 119 137 146 151 153 136 128 116 116 118 129 144 154 181 217 225 226 228 232 233 224 199 206 189 167 165
331 326 212 214 284 187 198 186 211 240 256 261 239 121 112 145 157 168 179 167 156 152 146 163 178 178 155 153 146 142 153 186 215 199 215 233 238 99 90 110 147 117 183 192
248 317 37 300 263 187 182 202 182 214 242 232 134 175 189 185 180 193 186 175 169 173 175 180 189 187 193 205 161 131 129 168 187 169 153 244 107 74 64 32 73 3 267 198
125 63 231 249 272 175 144 270 241 219 197 176 176 186 194 185 171 174 190 195 193 176 169 167 163 168 167 151 151 146 155 222 214 213 231 264 152 147 288 318 293 256 246 240
122 163 276 294 276 168 156 293 297 162 155 113 109 70 7 264 177 173 175 174 183 176 158 144 154 151 123 126 158 162 212 233 225 214 232 243 246 254 259 260 285 285 269 245
126 154 222 246 275 245 110 278 251 169 167 152 116 107 269 248 151 146 144 144 140 108 94 99 160 141 136 187 222 247 247 241 231 213 213 221 227 234 246 233 252 287 309 293
149 193 250 260 287 78 153 245 217 181 173 163 176 200 214 167 151 150 141 130 108 96 97 180 165 153 172 210 242 254 253 247 244 231 221 222 219 214 197 182 133 7 343 325
145 179 251 296 119 175 222 254 161 179 181 170 167 140 127 137 139 129 115 100 101 112 295 272 165 163 192 234 254 259 245 234 247 247 227 204 190 212 206 179 178 284 344 339
184 210 249 269 235 247 178 168 195 183 182 154 151 159 153 158 155 141 128 122 112 137 263 299 237 185 210 248 249 222 213 230 248 243 227 201 188 196 175 153 177 243 303 303
237 268 277 289 295 278 197 188 182 168 163 157 165 169 161 152 149 137 128 128 123 111 343 299 290 253 235 244 221 199 214 237 252 253 261 203 173 173 165 180 212 219 221 260
250 271 307 311 302 281 353 59 93 117 154 165 159 163 163 160 168 160 149 150 149 178 243 267 282 280 262 244 202 197 222 227 226 229 226 221 208 195 194 205 199 195 210 211
222 221 200 245 265 260 154 159 157 140 129 148 155 162 157 164 178 165 166 180 193 227 257 279 288 289 278 246 200 190 207 215 210 207 207 209 215 293 5 198 119 169 204 204
221 207 199 232 252 231 165 164 148 144 149 138 138 150 153 158 170 164 176 196 205 221 244 273 288 283 273 237 193 191 207 211 205 202 203 206 195 192 282 342 30 60 262 254
215 171 173 203 207 163 124 108 93 86 95 112 123 131 139 135 137 163 205 224 223 225 247 265 284 277 261 224 202 202 205 203 195 202 204 207 205 204 204 221 286 313 310 288
225 207 184 171 138 120 110 101 93 86 83 80 111 139 156 157 174 209 227 223 170 344 308 303 289 281 269 200 190 197 200 203 200 205 199 198 199 201 209 215 226 265 310 317
136 96 121 133 143 141 129 128 129 152 151 139 148 160 178 173 170 199 252 182 155 270 290 294 282 278 253 182 181 201 214 212 197 196 197 193 189 208 225 223 227 238 251 261
137 147 151 160 171 177 179 177 172 174 171 167 182 173 152 129 97 19 298 305 264 268 275 270 271 273 242 206 194 204 215 215 202 195 197 199 204 225 230 223 226 241 249 243
185 192 189 185 187 189 190 180 171 169 179 192 174 157 160 171 203 236 264 310 337 320 299 275 269 267 246 217 205 207 206 207 203 204 206 211 217 225 227 228 231 244 260 255
178 183 186 186 185 177 181 189 188 188 188 176 174 186 200 211 220 235 256 284 302 297 296 288 276 267 256 237 205 194 204 208 209 215 214 218 229 236 236 241 243 242 242 245
133 150 151 153 156 166 176 185 179 182 191 178 169 177 211 242 237 230 231 259 267 268 277 286 279 260 255 240 219 201 206 213 220 225 227 229 230 236 239 243 245 247 245 242
133 132 136 143 155 174 179 178 175 185 199 180 176 197 221 249 249 229 231 273 285 277 279 277 271 261 252 233 218 207 211 216 221 225 230 238 242 243 244 246 247 250 250 247
137 142 144 143 144 164 190 180 176 180 191 197 201 208 219 243 252 259 255 248 262 268 271 276 273 268 256 236 216 207 213 221 227 229 233 238 244 250 252 252 252 254 250 244
142 152 151 158 170 183 182 179 182 183 199 212 217 224 230 236 231 232 270 269 262 266 261 259 260 258 257 237 211 210 217 222 227 230 236 241 245 248 253 256 256 254 250 243
128 142 148 146 130 138 196 242 230 219 222 230 234 230 225 240 268 260 256 274 269 267 262 253 245 246 242 226 223 229 232 232 232 234 240 248 255 258 256 252 253 251 246 244
143 139 134 138 161 203 225 237 246 238 227 260 280 279 259 230 240 273 277 276 273 267 271 262 245 246 237 223 226 234 240 240 235 235 243 250 256 258 261 262 260 260 257 250
162 183 196 203 203 205 204 201 213 223 208 264 305 313 324 328 304 298 294 293 297 272 274 282 261 235 230 231 235 236 238 244 246 241 241 243 253 258 263 266 270 265 262 257
145 153 144 324 279 215 196 200 211 222 210 203 254 288 295 308 337 331 316 324 337 331 308 297 286 265 251 243 247 251 246 242 234 238 257 262 261 260 261 261 264 265 264 264
Height
1506 1503 1502 1503 1504 1507 1510 1514 1520 1514 1513 1505 1501 1500 1500 1501 1501 1503 1503 1504 1506 1507 1509 1510 1511 1512 1513 1513 1514 1514 1515 1515 1514 1514 1514 1514 1514 1514 1514 1514 1514 1513 1513 1513
1506 1502 1502 1504 1503 1504 1505 1507 1509 1509 1508 1500 1499 1500 1500 1501 1502 1502 1503 1504 1505 1507 1508 1509 1510 1511 1512 1513 1513 1513 1513 1513 1513 1513 1513 1512 1512 1511 1511 1511 1511 1511 1511 1510
1515 1508 1504 1512 1505 1503 1504 1503 1505 1507 1503 1499 1500 1500 1500 1501 1502 1503 1503 1504 1505 1506 1507 1508 1509 1510 1511 1511 1512 1512 1512 1512 1512 1511 1511 1510 1509 1509 1508 1508 1508 1508 1508 1508
1519 1513 1521 1510 1498 1497 1500 1500 1499 1498 1498 1498 1498 1499 1500 1501 1501 1502 1504 1505 1505 1506 1507 1507 1508 1509 1509 1510 1510 1510 1510 1510 1510 1509 1508 1508 1507 1506 1506 1506 1505 1505 1505 1505
1523 1523 1517 1504 1497 1497 1500 1501 1497 1498 1498 1498 1499 1499 1500 1501 1501 1502 1503 1505 1505 1506 1506 1507 1507 1508 1508 1508 1508 1508 1508 1508 1507 1507 1506 1505 1505 1504 1504 1503 1503 1502 1502 1502
1521 1521 1523 1506 1495 1494 1497 1503 1497 1496 1497 1497 1498 1503 1502 1500 1500 1501 1503 1504 1504 1505 1505 1506 1506 1507 1507 1507 1507 1506 1506 1506 1505 1505 1504 1504 1503 1502 1502 1501 1501 1500 1500 1500
1518 1518 1511 1498 1494 1494 1507 1504 1494 1494 1495 1496 1497 1499 1500 1499 1500 1501 1502 1503 1503 1504 1504 1504 1505 1505 1505 1505 1505 1505 1505 1504 1504 1503 1503 1502 1501 1501 1500 1500 1499 1498 1497 1497
1519 1518 1513 1495 1494 1498 1497 1492 1492 1493 1494 1495 1496 1497 1498 1499 1499 1500 1501 1502 1502 1503 1503 1503 1504 1503 1503 1502 1503 1504 1503 1502 1501 1501 1501 1500 1500 1499 1499 1498 1497 1496 1496 1495
1507 1507 1497 1494 1493 1493 1492 1492 1492 1493 1494 1495 1495 1496 1497 1498 1498 1499 1500 1501 1502 1502 1502 1502 1502 1501 1501 1501 1501 1501 1501 1500 1500 1499 1499 1498 1498 1497 1497 1496 1495 1494 1494 1493
1501 1496 1493 1492 1491 1491 1491 1491 1491 1492 1493 1494 1495 1496 1497 1497 1498 1498 1499 1500 1501 1501 1501 1500 1500 1499 1499 1499 1499 1499 1498 1498 1498 1497 1497 1497 1496 1496 1495 1494 1493 1493 1492 1491
1498 1494 1492 1490 1490 1490 1491 1491 1491 1492 1493 1493 1494 1495 1496 1496 1497 1498 1499 1499 1500 1500 1499 1499 1498 1497 1497 1497 1497 1496 1496 1495 1495 1495 1495 1495 1494 1494 1493 1493 1492 1492 1491 1490
1494 1490 1491 1490 1489 1490 1490 1490 1491 1491 1492 1492 1493 1494 1495 1496 1497 1497 1498 1498 1498 1498 1497 1496 1495 1494 1494 1494 1494 1494 1493 1493 1493 1493 1493 1493 1492 1492 1492 1491 1491 1491 1490 1490
1486 1486 1487 1488 1489 1489 1489 1490 1490 1490 1491 1492 1493 1494 1494 1495 1496 1496 1497 1497 1496 1496 1495 1493 1493 1492 1491 1491 1491 1491 1491 1491 1490 1490 1490 1490 1490 1490 1489 1489 1489 1488 1488 1488
1483 1484 1485 1486 1487 1488 1489 1490 1490 1490 1491 1492 1492 1493 1493 1494 1494 1495 1495 1495 1495 1494 1493 1492 1491 1490 1490 1489 1489 1488 1488 1488 1488 1488 1488 1488 1488 1487 1487 1487 1486 1485 1485 1485
1482 1483 1483 1484 1486 1487 1489 1489 1489 1490 1490 1491 1492 1492 1492 1492 1493 1493 1493 1493 1493 1492 1491 1490 1489 1488 1488 1487 1487 1486 1486 1486 1486 1486 1486 1486 1485 1485 1485 1484 1484 1483 1483 1483
1481 1481 1482 1484 1485 1486 1488 1488 1489 1489 1490 1490 1491 1491 1492 1491 1492 1492 1491 1491 1490 1489 1488 1488 1487 1486 1486 1486 1485 1485 1485 1485 1484 1484 1484 1483 1483 1482 1482 1481 1481 1481 1480 1480
1480 1480 1482 1483 1484 1485 1486 1487 1488 1488 1488 1489 1489 1490 1490 1490 1490 1490 1490 1489 1489 1488 1487 1486 1485 1485 1484 1484 1484 1483 1483 1482 1482 1482 1481 1481 1480 1479 1478 1478 1478 1478 1478 1478
1478 1479 1480 1481 1482 1484 1485 1486 1487 1487 1487 1488 1488 1488 1489 1488 1488 1488 1488 1487 1486 1486 1485 1484 1484 1483 1483 1482 1482 1482 1481 1480 1480 1479 1478 1478 1477 1476 1476 1475 1475 1475 1475 1475
1477 1478 1479 1481 1481 1482 1483 1484 1485 1486 1486 1487 1487 1487 1487 1487 1487 1486 1486 1485 1484 1483 1483 1482 1481 1481 1480 1480 1479 1479 1479 1478 1477 1477 1476 1475 1475 1474 1473 1472 1472 1472 1471 1471
1476 1477 1478 1479 1480 1481 1482 1483 1484 1484 1485 1485 1485 1485 1485 1485 1485 1484 1484 1483 1482 1481 1480 1479 1479 1478 1478 1477 1477 1476 1476 1475 1475 1474 1473 1472 1471 1471 1470 1469 1469 1468 1468 1467
1475 1476 1477 1478 1479 1480 1480 1481 1482 1483 1483 1483 1483 1483 1483 1483 1483 1482 1481 1480 1480 1479 1478 1477 1476 1475 1475 1474 1474 1473 1473 1472 1472 1471 1470 1469 1468 1467 1467 1466 1466 1465 1464 1463
1474 1475 1476 1477 1478 1478 1479 1480 1480 1481 1481 1481 1481 1481 1481 1480 1480 1479 1479 1478 1477 1476 1475 1474 1473 1472 1472 1471 1470 1470 1470 1469 1468 1468 1467 1466 1465 1464 1464 1463 1462 1461 1461 1459
1474 1474 1475 1476 1477 1477 1478 1478 1479 1479 1479 1479 1479 1479 1479 1478 1477 1477 1475 1475 1474 1473 1472 1471 1471 1470 1469 1467 1467 1466 1466 1466 1465 1465 1464 1463 1462 1461 1460 1460 1459 1458 1457 1456
1473 1473 1474 1475 1476 1476 1476 1476 1477 1477 1477 1478 1478 1477 1476 1475 1474 1474 1473 1472 1471 1471 1470 1469 1468 1467 1466 1465 1464 1463 1463 1462 1462 1461 1461 1460 1459 1458 1457 1456 1456 1455 1454 1453
1472 1473 1473 1474 1474 1475 1475 1475 1475 1475 1475 1475 1475 1475 1474 1473 1472 1471 1470 1469 1469 1468 1466 1465 1465 1464 1463 1462 1462 1461 1460 1459 1459 1458 1457 1456 1456 1455 1454 1453 1453 1452 1451 1450
1471 1472 1472 1472 1473 1473 1473 1474 1474 1473 1473 1473 1473 1472 1472 1471 1470 1469 1468 1467 1466 1465 1464 1463 1462 1461 1461 1460 1459 1459 1458 1457 1456 1455 1454 1453 1453 1452 1451 1450 1449 1449 1448 1447
1470 1471 1471 1471 1471 1471 1472 1472 1472 1471 1471 1471 1471 1470 1470 1469 1468 1467 1466 1465 1464 1463 1462 1461 1460 1460 1459 1458 1457 1456 1455 1454 1454 1453 1452 1451 1450 1450 1449 1448 1447 1447 1445 1444